Hourly Data Report for March 02, 2017

PORT ALBERNI (AUT)
BRITISH COLUMBIA

49°18'59.700" N
124°55'36.600" W
76.20 m
1036B06
71475
WQC

Download Data

Hourly Data (March 2017)
Hourly Data Report for March 2, 2017
TIME
LST
Temp Definition
°C
Dew Point Definition
°C
Rel Hum Definition
%
Precip. Amount Definition
mm

Wind Dir Definition
10's deg

Wind Spd Definition
km/h
Visibility Definition
km
Stn Press Definition
kPa
Hmdx Definition


Wind Chill Definition


Weather Definition


00:00 2.0 1.6 97 0.0 24 1   101.83     LegendNANA
01:00 2.2 1.8 98 0.0 28 2   101.78     LegendNANA
02:00 1.6 1.2 98 0.0 13 3   101.70     LegendNANA
03:00 1.3 1.0 98 0.1   0   101.60     LegendNANA
04:00 1.5 1.2 98 0.1   0   101.53     LegendNANA
05:00 2.0 1.7 99 0.5   0   101.46     LegendNANA
06:00 2.2 2.0 99 0.5 19 6   101.39     LegendNANA
07:00 2.4 2.3 99 1.7 14 4   101.33     LegendNANA
08:00 2.7 2.5 99 1.1 17 2   101.29     LegendNANA
09:00 2.9 2.7 99 1.7 17 5   101.29     LegendNANA
10:00 3.4 3.1 98 1.5 0 1   101.30     LegendNANA
11:00 4.2 3.7 97 1.3 15 4   101.24     LegendNANA
12:00 5.3 4.6 96 0.9 19 3   101.20     LegendNANA
13:00 6.5 5.8 96 0.6 12 9   101.15     LegendNANA
14:00 4.8 4.2 96 0.8 18 4   101.07     LegendNANA
15:00 4.5 4.0 96 1.0 17 9   101.04     LegendNANA
16:00 5.1 4.5 96 0.9 15 4   100.94     LegendNANA
17:00 4.1 3.6 97 0.6 17 5   100.86     LegendNANA
18:00 3.7 3.4 98 1.4 13 7   100.76     LegendNANA
19:00 3.6 3.3 98 2.1 20 4   100.70     LegendNANA
20:00 3.5 3.2 98 1.9 21 4   100.64     LegendNANA
21:00 2.8 2.5 98 2.0 21 2   100.54     LegendNANA
22:00 2.2 1.9 97 0.3 24 3   100.48     LegendNANA
23:00 2.3 1.8 97 1.7 28 4   100.46     LegendNANA

Notes on Data Quality.

Legend

  • E = Estimated
  • M = Missing
  • NA = Not Available*
  • [empty] = Indicates an unobserved value
Date modified: